World > North America > United States > California > Healdsburg   City of Healdsburg, California

Healdsburg, CA Hourly Weather Updates

Feedback E-mail the Weather

Quick Clicks

Healdsburg, CA Weather Maps

°F °C°F °C
Healdsburg Weather Map
UTC Time: 4/13/2024, 07:28
Your Time:

Healdsburg, CA Regional Weather

Expires:202404130800;;657233
ASUS46 KSTO 130715
RWRCA 

NORTHERN AND CENTRAL CA REGIONAL WEATHER ROUNDUP
NATIONAL WEATHER SERVICE SACRAMENTO CA 
1200 AM PDT SAT APR 13 2024

NOTE: FAIR INDICATES FEW OR NO CLOUDS BELOW 12,000 FEET WITH NO
SIGNIFICANT WEATHER AND/OR OBSTRUCTIONS TO VISIBILITY.


CAZ006-505>513-130800-
BAY AREA
  
CITY           SKY/WX    TMP DP  RH WIND       PRES   REMARKS
SANTA ROSA     LGT RAIN  52  50  93 S14G23    29.79F FOG              
SAN RAFAEL     N/A       53  MM  MM MISG
NAPA           CLOUDY    56  47  71 S8G21     29.81R                  
CONCORD        MOCLDY    58  45  62 S12G22    29.81F                  
OAKLAND CITY   N/A       56  MM  MM MISG
OAKLAND        MOCLDY    57  49  74 S14       29.83S                  
SAN FRAN CITY  N/A       54  MM  74 MISG
SAN FRAN ARPT  MOCLDY    57  47  69 SE14      29.81S                  
LIVERMORE      PTCLDY    55  45  68 S10G20    29.81F                  
HAYWARD        CLOUDY    59  46  62 SE14G21   29.81F                  
REDWOOD CITY   N/A       57  MM  68 MISG
MOFFETT ARPT   MOCLDY    57  45  62 S12G20    29.82R                  
SAN JOSE ARPT  MOCLDY    60  44  55 S14G23    29.82S                  
$$

SKY/WX - Weather  TMP - Temperature  DP - Dew Point  RH - Humidity
WIND - Wind Direction/Speed PRES - Barometric Pressure VSB - Visibility
WCI - Wind Chill Index E13G22 Wind - East Wind 13 mph/Gusts of 22 mph

Trending Headlines

Trending Entertainment Headlines

Healdsburg Radar Loop

Use the map search tool if you want to place a location marker on the radar map...

Healdsburg Quick Facts

National Two Day Weather Forecast


E-mail the Healdsburg Weather Forecast

Voice your opinion or tell us about page issues...